リニア彗星

P/2000 R2 ( LINEAR ) 2006

English version
Home page
Updated on December 31, 2006

---------------------------------------------------------------------

・ プロフィール

・ 軌道要素

Perturbed ephemeris below is based on elements from MPC 48384. 

 Epoch = 2454080.50000 TT   T = 2454084.55006 TT
 Peri. =  172.23392         a =     3.3482825 AU
 Node  =  163.09937 J2000.0 e =     0.5650841
 Incl. =   10.99295         q =     1.4562213 AU

・ 光度変化

        m1 = 17.5 + 5 logΔ + 15.0 log r

---------------------------------------------------------------------

軌道要素はMinor Planet & Comet Ephemeris Serviceで計算したものです。
光度グラフはComet for Windowsで作成したものです。

---------------------------------------------------------------------

Copyright(C) Seiichi Yoshida (comet@aerith.net). All rights reserved.